[[{"header":{"parameterUnit":"m.s-1","parameterCategory":1,"la1":30.2991,"la2":30.254,"lo1":-89.0895,"lo2":-89.0444,"dy":0.0017,"dx":0.0017,"nx":28,"ny":28,"refTime":"2023-08-19T09:00:00:Z","depth":0,"parameterNumber":2,"parameterNumberName":"U-component_of_WINDS"},"data":[0,0,0,0,0,0,0,0,0,0,0,0,0,0,0,0,0,0,0,0,0,0,0,0,0,0,0,0,0,0,0,0,0,0,0,0,0,0,0,0,0,0,0,0,0,0,0,0,0,0,0,0,0,0,0,0,0,0,0.4304,0.4305,0,0.4418,0.4419,0.4421,0.4448,0.4447,0.4446,0.4446,0.4564,0.4568,0.4572,0,0,0,0,0,0,0,0,0,0,0,0,0,0.4108,0.4111,0.4303,0.4305,0.4306,0.4418,0.4419,0.4421,0.4448,0.4447,0.4446,0.4445,0.4563,0.4568,0.4572,0,0,0,0,0,0,0,0,0,0,0,0,0,0.4205,0.4113,0.4303,0.4333,0.4337,0.4418,0.442,0.4421,0.4448,0.4447,0.4446,0.4445,0.4562,0.4567,0.4573,0.4632,0,0,0.4591,0.4593,0,0,0,0,0,0,0,0,0.4199,0.4212,0.4327,0.4331,0.4336,0.4417,0.4394,0.4492,0.4448,0.4406,0.4446,0.4444,0.4516,0.4526,0.455,0.4638,0.4643,0.4591,0.4595,0.4597,0.4599,0,0,0,0,0,0,0,0.4193,0.4207,0.4349,0.4329,0.4334,0.4341,0.4353,0.4413,0.4466,0.441,0.4412,0.4425,0.4519,0.4544,0.4553,0.4645,0.4591,0.4596,0.46,0.4602,0.4785,0.4787,0,0,0,0,0,0,0.4181,0.4201,0.4345,0.4352,0.4263,0.4345,0.4359,0.4392,0.4466,0.4476,0.4426,0.4426,0.4535,0.4546,0.4557,0.463,0.4597,0.4603,0.4606,0.4784,0.4786,0.4787,0,0,0,0,0,0,0.4176,0.4193,0.4341,0.4278,0.4297,0.435,0.4387,0.4395,0.4421,0.4478,0.4488,0.4442,0.4535,0.4549,0.4613,0.4635,0.4605,0.4611,0.4782,0.4784,0.4786,0.4778,0,0,0,0,0,0,0.4171,0.4191,0.4215,0.4278,0.43,0.4394,0.4388,0.4398,0.4431,0.4432,0.4496,0.4506,0.4535,0.4604,0.4619,0.4642,0.4615,0.4781,0.4783,0.4786,0.4776,0.4779,0.4782,0,0,0,0,0,0.4163,0.4208,0.4216,0.4233,0.433,0.4395,0.4408,0.444,0.4433,0.4456,0.4492,0.4504,0.463,0.461,0.4627,0.4653,0.4779,0.4782,0.4785,0.4775,0.4779,0.4782,0,0,0,0,0,0,0.4147,0.4217,0.4226,0.4293,0.4338,0.44,0.4431,0.4443,0.4492,0.4491,0.4529,0.4543,0.4604,0.4635,0.4612,0.4713,0.4705,0.4711,0.4691,0.4695,0.4697,0.4689,0.462,0,0,0,0,0,0.4151,0.4198,0.4257,0.431,0.4332,0.4377,0.4407,0.4428,0.4476,0.4496,0.4537,0.4584,0.4634,0.4666,0.4716,0.4781,0.4795,0.4807,0.4809,0.4811,0.4816,0.4852,0.4857,0.4797,0.4797,0.4797,0,0,0.416,0.4204,0.4232,0.4308,0.4345,0.4393,0.4393,0.4444,0.448,0.4504,0.4566,0.4597,0.4652,0.4716,0.4747,0.4744,0.4836,0.4815,0.4816,0.4821,0.4856,0.4861,0.4866,0.4799,0.4799,0.4798,0,0,0.42,0.4239,0.4286,0.4324,0.438,0.4409,0.4421,0.4481,0.4503,0.4566,0.4584,0.4627,0.4713,0.4751,0.4781,0.4834,0.4846,0.4849,0.4863,0.4897,0.4902,0.4906,0.4924,0.493,0.4854,0.4854,0.4854,0,0.4204,0.4277,0.4309,0.4359,0.4391,0.4414,0.4462,0.4497,0.4567,0.4589,0.4584,0.4691,0.473,0.4803,0.4815,0.484,0.4853,0.4842,0.4899,0.4903,0.4908,0.4925,0.4932,0.4854,0.4854,0.4854,0.4854,0,0.4278,0.4328,0.436,0.4425,0.4462,0.451,0.455,0.4583,0.46,0.463,0.4693,0.474,0.4798,0.4817,0.4835,0.4892,0.4889,0.4891,0.4883,0.4913,0.493,0.4937,0.4854,0.4854,0.4854,0.4854,0,0,0.4312,0.4394,0.4405,0.4434,0.4498,0.4537,0.4586,0.4643,0.4669,0.4717,0.4758,0.483,0.4832,0.4866,0.4889,0.4918,0.4956,0.4917,0.4919,0.4922,0.502,0.5017,0.5024,0.4964,0.4965,0.4966,0.5015,0,0.4359,0.4447,0.4478,0.4551,0.4597,0.4618,0.4661,0.4704,0.4733,0.4776,0.4809,0.4858,0.4858,0.4879,0.4909,0.4945,0.4976,0.4942,0.5003,0.5004,0.4987,0.5034,0.5031,0.5075,0.5022,0.5023,0.5024,0,0.4426,0.4473,0.455,0.4606,0.4627,0.4665,0.4718,0.4759,0.4808,0.4827,0.4865,0.4885,0.4936,0.4925,0.4997,0.4973,0.4999,0.502,0.5023,0.5029,0.5016,0.504,0.509,0.5096,0.5035,0.5034,0.5033,0,0.4441,0.4524,0.458,0.4605,0.4672,0.4698,0.4728,0.4775,0.4807,0.4854,0.4875,0.4927,0.4956,0.4996,0.5029,0.5018,0.5097,0.5089,0.5114,0.5113,0.5129,0.5128,0.5183,0.5147,0.5147,0.5147,0.5147,0,0.449,0.4536,0.4588,0.4622,0.4675,0.4709,0.476,0.479,0.4832,0.4873,0.4896,0.4933,0.4975,0.5018,0.5044,0.5099,0.5112,0.5128,0.5135,0.5126,0.5124,0.5144,0.5141,0.5149,0.5149,0.5148,0.5148,0,0.4515,0.4552,0.4615,0.4673,0.4689,0.4724,0.4774,0.4809,0.4838,0.4889,0.4903,0.495,0.5002,0.5038,0.5105,0.5123,0.5181,0.5188,0.5164,0.5167,0.519,0.5187,0.5259,0.527,0.5228,0.5228,0.5228,0,0.4544,0.458,0.4641,0.467,0.4699,0.4745,0.4777,0.4812,0.4845,0.4903,0.493,0.4983,0.5027,0.5109,0.5148,0.5199,0.5207,0.5229,0.5215,0.5204,0.5206,0.5203,0.5206,0.523,0.5231,0.5231,0.5231,0,0.459,0.4606,0.4651,0.4703,0.474,0.4782,0.4825,0.4847,0.489,0.4925,0.4978,0.5012,0.5079,0.5132,0.5186,0.5216,0.5231,0.5235,0.5243,0.5235,0.5219,0.5227,0.5169,0.5233,0.5233,0.5233,0.5233,0.5233,0.4617,0.465,0.4698,0.4747,0.4783,0.4822,0.4856,0.489,0.4934,0.4992,0.501,0.5064,0.5112,0.5186,0.5217,0.526,0.5259,0.5271,0.5274,0.5276,0.5275,0.5213,0.527,0.527,0.527,0.527,0.527,0,0.4664,0.4696,0.4741,0.4799,0.4838,0.4847,0.4895,0.4926,0.4974,0.5017,0.5059,0.5119,0.517,0.5213,0.5265,0.5291,0.5298,0.5303,0.5301,0.5308,0.5274,0.5261,0.5296,0.5296,0.5296,0.5296,0.5296,0.5296,0.4692,0.4747,0.4769,0.4841,0.4873,0.4926,0.4952,0.4988,0.5022,0.5088,0.513,0.5157,0.52,0.5255,0.5301,0.5313,0.5331,0.5333,0.5346,0.5313,0.531,0.5307,0.5295,0.5337,0.5337,0.5377,0.5377,0.5377]},{"header":{"parameterUnit":"m.s-1","parameterCategory":1,"la1":30.2991,"la2":30.254,"lo1":-89.0895,"lo2":-89.0444,"dy":0.0017,"dx":0.0017,"nx":28,"ny":28,"refTime":"2023-08-19T09:00:00:Z","depth":0,"parameterNumber":3,"parameterNumberName":"V-component_of_WINDS"},"data":[0,0,0,0,0,0,0,0,0,0,0,0,0,0,0,0,0,0,0,0,0,0,0,0,0,0,0,0,0,0,0,0,0,0,0,0,0,0,0,0,0,0,0,0,0,0,0,0,0,0,0,0,0,0,0,0,0,0,4.8355,4.8354,0,4.8267,4.8266,4.8265,4.8163,4.8162,4.816,4.8159,4.8065,4.8064,4.8063,0,0,0,0,0,0,0,0,0,0,0,0,0,4.8431,4.843,4.8355,4.8354,4.8353,4.8267,4.8266,4.8265,4.8163,4.8162,4.816,4.8158,4.8065,4.8064,4.8063,0,0,0,0,0,0,0,0,0,0,0,0,0,4.8376,4.843,4.8355,4.8292,4.8285,4.8268,4.8266,4.8265,4.8164,4.8161,4.8159,4.8157,4.8066,4.8064,4.8063,4.8099,0,0,4.8058,4.8057,0,0,0,0,0,0,0,0,4.8379,4.8373,4.8302,4.8296,4.8289,4.8224,4.8258,4.8209,4.8164,4.821,4.8159,4.8156,4.8119,4.8113,4.8102,4.8094,4.809,4.8058,4.8057,4.8056,4.8055,0,0,0,0,0,0,0,4.8383,4.8376,4.832,4.8301,4.8293,4.8267,4.8256,4.8249,4.8178,4.8206,4.8198,4.8189,4.8115,4.8104,4.8099,4.8089,4.8058,4.8056,4.8055,4.8055,4.8105,4.8107,0,0,0,0,0,0,4.8397,4.838,4.8323,4.8317,4.8329,4.8267,4.8256,4.8247,4.8178,4.8166,4.8191,4.8185,4.8107,4.8101,4.8095,4.8132,4.8056,4.8054,4.8053,4.8103,4.8106,4.8108,0,0,0,0,0,0,4.8399,4.8393,4.8326,4.8347,4.8336,4.8268,4.8259,4.8246,4.8235,4.8168,4.8154,4.8193,4.8105,4.8097,4.8098,4.8127,4.8054,4.8052,4.81,4.8104,4.8107,4.8207,0,0,0,0,0,0,4.8402,4.8394,4.8408,4.8348,4.8336,4.8333,4.8261,4.8246,4.8233,4.8223,4.8165,4.8153,4.8103,4.8101,4.8097,4.8124,4.8051,4.8097,4.8102,4.8106,4.82,4.8213,4.8224,0,0,0,0,0,4.8405,4.8439,4.8409,4.8403,4.8352,4.8335,4.8328,4.827,4.8235,4.8248,4.8205,4.8155,4.8125,4.8102,4.8096,4.8123,4.8095,4.81,4.8105,4.8195,4.821,4.8223,0,0,0,0,0,0,4.8503,4.843,4.8396,4.8413,4.8381,4.8318,4.8332,4.8289,4.8265,4.8257,4.8186,4.8173,4.8183,4.8153,4.8129,4.8154,4.8103,4.8107,4.8173,4.8187,4.8198,4.8205,4.805,0,0,0,0,0,4.8527,4.8521,4.8457,4.8477,4.8463,4.8401,4.8391,4.835,4.8313,4.8299,4.8256,4.8221,4.8204,4.8194,4.8174,4.8196,4.8181,4.8211,4.8223,4.8233,4.8237,4.8244,4.8257,4.8125,4.8125,4.8125,0,0,4.8576,4.8535,4.8535,4.8496,4.8466,4.846,4.839,4.8386,4.838,4.8298,4.8296,4.8264,4.822,4.8232,4.8235,4.8207,4.827,4.8239,4.8248,4.8246,4.8251,4.8264,4.8275,4.8129,4.8128,4.8127,0,0,4.8661,4.8631,4.8644,4.8616,4.8573,4.8531,4.8534,4.8478,4.8453,4.8451,4.8389,4.838,4.8352,4.8323,4.8305,4.838,4.8332,4.8375,4.8436,4.8444,4.8455,4.8463,4.8489,4.8499,4.838,4.838,4.838,0,4.8727,4.8716,4.8656,4.8656,4.864,4.8567,4.8578,4.8554,4.8506,4.8496,4.8466,4.8429,4.8395,4.8398,4.8416,4.8405,4.8405,4.8381,4.8458,4.8467,4.8474,4.8497,4.8507,4.8385,4.8385,4.8384,4.8384,0,4.8798,4.8792,4.8807,4.8764,4.875,4.8756,4.8695,4.8688,4.8648,4.8609,4.8607,4.8563,4.8533,4.8531,4.8491,4.8528,4.8512,4.8472,4.8419,4.8493,4.8513,4.8522,4.8393,4.8391,4.839,4.8388,0,0,4.8942,4.8866,4.8873,4.8852,4.8799,4.8792,4.8794,4.8766,4.8761,4.873,4.8729,4.8707,4.8669,4.8648,4.8605,4.8613,4.8673,4.857,4.8568,4.859,4.8709,4.8739,4.8751,4.8642,4.8643,4.8644,4.8712,0,4.9017,4.9018,4.8964,4.8979,4.8971,4.8902,4.8903,4.887,4.8834,4.8821,4.878,4.8765,4.8717,4.8704,4.8709,4.8665,4.8696,4.8659,4.8638,4.8638,4.865,4.8762,4.8794,4.886,4.872,4.8721,4.8722,0,4.9104,4.908,4.9095,4.9041,4.9036,4.9039,4.9008,4.8997,4.8957,4.893,4.8908,4.8859,4.8855,4.8806,4.88,4.8776,4.8764,4.8742,4.8743,4.8737,4.8684,4.8758,4.888,4.8889,4.8735,4.8734,4.8733,0,4.9207,4.9178,4.9183,4.9167,4.9104,4.9108,4.9082,4.904,4.9026,4.8999,4.8989,4.8962,4.8946,4.8925,4.8869,4.8839,4.8869,4.8815,4.8845,4.8846,4.8853,4.8853,4.8973,4.8848,4.8848,4.8848,4.8847,0,4.9295,4.9307,4.9228,4.9231,4.9241,4.9178,4.919,4.9157,4.912,4.9114,4.9052,4.9048,4.8975,4.8961,4.8918,4.8918,4.8912,4.8888,4.8876,4.8893,4.8896,4.8884,4.8877,4.885,4.8849,4.8849,4.8849,0,4.9411,4.9358,4.9359,4.93,4.9286,4.9296,4.9244,4.9244,4.9204,4.9197,4.9192,4.9129,4.911,4.9053,4.9019,4.8989,4.9002,4.898,4.9016,4.9008,4.904,4.9038,4.9155,4.9167,4.9036,4.9037,4.9038,0,4.947,4.9477,4.942,4.9412,4.9389,4.9377,4.9363,4.9302,4.9289,4.9245,4.9249,4.9226,4.9204,4.9176,4.9126,4.91,4.9076,4.9119,4.9071,4.9088,4.9075,4.9075,4.9075,4.9129,4.9131,4.9132,4.9134,0,4.958,4.9554,4.9537,4.9512,4.9497,4.9473,4.9446,4.9443,4.9373,4.9362,4.9343,4.9326,4.9292,4.9269,4.9235,4.9205,4.9158,4.9149,4.9154,4.9171,4.9191,4.918,4.9043,4.9146,4.9145,4.9144,4.9144,4.9143,4.9668,4.9672,4.9632,4.9615,4.9588,4.9564,4.956,4.9521,4.9504,4.9473,4.9437,4.9421,4.938,4.9329,4.9304,4.929,4.9264,4.9272,4.9273,4.9276,4.9284,4.9195,4.9283,4.9283,4.9282,4.9282,4.9281,0,4.9775,4.9746,4.9731,4.9695,4.9682,4.964,4.9607,4.9598,4.9586,4.9552,4.9532,4.951,4.9487,4.9436,4.9407,4.9406,4.9383,4.94,4.9399,4.9393,4.9309,4.9307,4.9419,4.9419,4.9419,4.9419,4.9419,4.9419,4.9828,4.9831,4.9801,4.9789,4.9759,4.9745,4.973,4.9707,4.968,4.9658,4.9639,4.9607,4.9565,4.9534,4.951,4.9496,4.9487,4.9512,4.949,4.9412,4.9399,4.9386,4.9384,4.9511,4.9511,4.9575,4.9576,4.9576]}]]